Location: Decatur Area Astronomy Club
(40.0275°N, 88.7810°W)
Time: 23:53:05
(UTC-05:00)

Amateur Radio Satellites - All Passes

Search period start: 28 July 2015 23:23
Search period end: 29 July 2015 23:23
Location: Decatur Area Astronomy Club, 40.0275°N, 88.7810°W

Satellite Date Start Highest point End Downlink Frequencies (MHz)
Time Altitude Azimuth
POLYITAN 1 28 Jul 23:26:23 23:29:56 26° 95° (E) 23:33:34 437.675
TIGRISAT 28 Jul 23:30:42 23:35:23 76° 102° (ESE) 23:40:06 435.000
ANTELSAT 28 Jul 23:30:48 23:35:30 80° 102° (ESE) 23:40:13 437.575/2403.000
AIST 1 28 Jul 23:32:49 23:36:52 41° 78° (ENE) 23:40:54
VERMONT LUNAR 28 Jul 23:34:03 23:37:13 81° 194° (SSW) 23:40:22 437.305
AUBIESAT-1 28 Jul 23:41:47 23:45:46 27° 297° (WNW) 23:49:38 437.475
POPSAT HIP 1 28 Jul 23:44:43 23:48:44 40° 98° (E) 23:52:46 437.405
SPROUT 28 Jul 23:45:12 23:48:58 32° 71° (ENE) 23:52:48 437.525
QB50P2 28 Jul 23:51:17 23:55:26 50° 99° (E) 23:59:36 145.880/145.840
BEESAT 3 29 Jul 00:00:48 00:04:11 26° 114° (ESE) 00:07:38 437.485
AISAT 29 Jul 00:04:56 00:08:32 24° 266° (W) 00:12:03 437.250
50 SAT 29 Jul 00:08:25 00:10:54 16° 268° (W) 00:13:16 437.505
BUGSAT 1 29 Jul 00:09:06 00:13:01 46° 99° (E) 00:16:58 437.445
TISAT 1 29 Jul 00:11:56 00:15:49 39° 72° (ENE) 00:19:45 437.305
DUCHIFAT 1 29 Jul 00:20:12 00:24:26 79° 284° (WNW) 00:28:40 145.980
QB50P1 29 Jul 00:20:30 00:24:45 75° 285° (WNW) 00:29:00 145.935-145.965
UNISAT 6 29 Jul 00:22:51 00:26:57 30° 290° (WNW) 00:31:01 437.425
NANOSAT C BR1 29 Jul 00:23:19 00:27:33 71° 285° (WNW) 00:31:47 145.865
PHONESAT 2.4 29 Jul 00:23:29 00:27:00 80° 359° (N) 00:30:30 2401.200-2431.200
CUBEBUG 1 29 Jul 00:31:10 00:34:38 22° 266° (W) 00:38:01 437.445
RS-15 29 Jul 00:34:16 00:44:18 37° 323° (NW) 00:54:35 29.354- 29.394
ISS 29 Jul 00:40:50 00:42:55 16° 343° (NNW) 00:44:59 145.825
BEESAT 29 Jul 00:41:03 00:43:51 16° 64° (ENE) 00:46:52 436.000
Cosmos 2491 29 Jul 00:42:00 00:50:40 70° 266° (W) 00:59:17 435.465 / 435.565
ESTCUBE 1 29 Jul 00:42:56 00:45:41 15° 270° (W) 00:48:15 437.505/2401.250
BEESAT 2 29 Jul 00:52:24 00:56:29 76° 120° (ESE) 01:00:37 435.950
SWISSCUBE 29 Jul 00:59:44 01:03:40 27° 68° (ENE) 01:07:43 437.505
POLYITAN 1 29 Jul 01:02:12 01:05:47 26° 290° (WNW) 01:09:19 437.675
YUBILEINY 29 Jul 01:03:13 01:11:51 76° 95° (E) 01:20:36 435.215
TIGRISAT 29 Jul 01:09:47 01:11:35 12° 296° (WNW) 01:13:07 435.000
ANTELSAT 29 Jul 01:10:05 01:11:42 11° 297° (WNW) 01:13:04 437.575/2403.000
VERMONT LUNAR 29 Jul 01:11:05 01:13:45 25° 207° (SSW) 01:16:21 437.305
AIST 1 29 Jul 01:11:44 01:14:11 15° 273° (W) 01:16:26
ITUPSAT 1 29 Jul 01:18:22 01:22:44 36° 70° (ENE) 01:27:10 437.325
POPSAT HIP 1 29 Jul 01:21:28 01:24:19 17° 293° (WNW) 01:27:02 437.405
SPROUT 29 Jul 01:21:52 01:25:08 20° 267° (W) 01:28:18 437.525
Oscar 19 29 Jul 01:28:11 01:32:01 21° 92° (E) 01:36:01 437.125/150
QB50P2 29 Jul 01:28:35 01:30:57 14° 294° (WNW) 01:33:08 145.880/145.840
BEESAT 3 29 Jul 01:38:28 01:42:03 28° 310° (NW) 01:45:38 437.485
BUGSAT 1 29 Jul 01:45:57 01:48:09 14° 294° (WNW) 01:50:11 437.445
TISAT 1 29 Jul 01:49:06 01:51:48 16° 268° (W) 01:54:20 437.305
O/OREOS (USA 219) 29 Jul 01:52:32 01:56:24 30° 105° (ESE) 02:00:21 437.305
Gurwin Techsat 1B 29 Jul 01:59:17 02:01:06 12° 87° (E) 02:03:15 435.225
AIST 2 29 Jul 02:00:12 02:04:27 88° 122° (ESE) 02:08:44 435.215
PHONESAT 2.4 29 Jul 02:01:31 02:04:58 59° 197° (SSW) 02:08:24 2401.200-2431.200
STARS 29 Jul 02:15:24 02:17:33 14° 65° (ENE) 02:19:55 437.465
Cosmos 2504 29 Jul 02:16:18 02:21:28 23° 83° (E) 02:27:06 435.465 / 435.565
BEESAT 29 Jul 02:16:35 02:21:17 56° 260° (W) 02:26:02 436.000
ISS 29 Jul 02:19:24 02:20:24 11° 3° (N) 02:21:26 145.825
KKS-1 29 Jul 02:31:02 02:34:59 33° 71° (ENE) 02:39:00 437.445
JAS-2 29 Jul 02:32:46 02:36:42 15° 84° (E) 02:41:10 435.910
BEESAT 2 29 Jul 02:32:58 02:35:06 13° 319° (NW) 02:37:05 435.950
SWISSCUBE 29 Jul 02:37:07 02:41:26 32° 264° (W) 02:45:43 437.505
ITAMSAT 1 29 Jul 02:40:46 02:45:06 27° 94° (E) 02:49:31 435.822/435.867
Cosmos 2491 29 Jul 02:43:13 02:46:08 11° 284° (WNW) 02:48:17 435.465 / 435.565
RS-15 29 Jul 02:53:45 03:01:23 19° 356° (N) 03:09:11 29.354- 29.394
ITUPSAT 1 29 Jul 02:56:52 03:00:44 23° 267° (W) 03:04:31 437.325
YUBILEINY 29 Jul 03:03:03 03:09:46 23° 296° (WNW) 03:16:10 435.215
Oscar 19 29 Jul 03:06:42 03:11:37 44° 289° (WNW) 03:16:30 437.125/150
O/OREOS (USA 219) 29 Jul 03:32:05 03:35:51 25° 302° (WNW) 03:39:34 437.305
Gurwin Techsat 1B 29 Jul 03:36:29 03:41:48 79° 285° (WNW) 03:47:07 435.225
PHONESAT 2.4 29 Jul 03:40:16 03:42:32 16° 212° (SSW) 03:44:45 2401.200-2431.200
AIST 2 29 Jul 03:41:44 03:43:40 12° 320° (NW) 03:45:29 435.215
STARS 29 Jul 03:49:19 03:53:35 54° 260° (W) 03:57:54 437.465
ISS 29 Jul 03:55:09 03:57:46 22° 23° (NNE) 04:00:25 145.825
Cosmos 2504 29 Jul 04:06:08 04:13:03 59° 282° (WNW) 04:20:27 435.465 / 435.565
KKS-1 29 Jul 04:08:17 04:11:43 21° 267° (W) 04:15:03 437.445
JAS-2 29 Jul 04:15:05 04:22:55 81° 103° (ESE) 04:30:45 435.910
AO-7 29 Jul 04:18:49 04:26:29 40° 98° (E) 04:34:13 29.400- 29.500
ITAMSAT 1 29 Jul 04:19:59 04:24:41 35° 291° (WNW) 04:29:19 435.822/435.867
DANDE 29 Jul 04:25:43 04:27:45 15° 97° (E) 04:29:41 436.750
MOZHAYETS 4 29 Jul 04:31:36 04:36:13 76° 77° (ENE) 04:40:53
HORYU 2 29 Jul 05:04:24 05:08:55 76° 285° (WNW) 05:13:24 437.375
RS-15 29 Jul 05:09:27 05:19:06 30° 30° (NNE) 05:29:20 29.354- 29.394
CUSAT 1 29 Jul 05:10:09 05:13:21 64° 280° (W) 05:16:04 437.405
Gurwin Techsat 1B 29 Jul 05:20:00 05:21:01 10° 301° (WNW) 05:21:43 435.225
ISS 29 Jul 05:31:12 05:34:25 56° 221° (SW) 05:37:37 145.825
GONETS M04 29 Jul 05:45:34 05:52:52 33° 86° (E) 06:00:23
JAS-2 29 Jul 06:01:24 06:07:13 23° 299° (WNW) 06:12:49 435.910
Cubesat XI-IV 29 Jul 06:05:13 06:08:16 16° 89° (E) 06:11:34 437.490
DANDE 29 Jul 06:08:12 06:10:48 18° 283° (WNW) 06:12:59 436.750
AO-7 29 Jul 06:11:33 06:19:23 46° 296° (WNW) 06:27:06 29.400- 29.500
CUBESAT XI-V 29 Jul 06:15:52 06:20:33 80° 76° (ENE) 06:25:16 437.345
STRAND 1 29 Jul 06:59:25 07:04:32 71° 74° (ENE) 07:09:40 437.568
CUTE-I 29 Jul 07:00:40 07:05:52 53° 100° (E) 07:11:03 437.470
PRISM 29 Jul 07:15:13 07:19:25 89° 77° (ENE) 07:23:38 437.425
RS-15 29 Jul 07:21:53 07:33:44 82° 57° (ENE) 07:46:01 29.354- 29.394
GONETS M04 29 Jul 07:40:55 07:49:25 53° 284° (WNW) 07:57:50
Cubesat XI-IV 29 Jul 07:43:37 07:48:53 62° 287° (WNW) 07:54:08 437.490
Cosmos 2499 29 Jul 07:52:16 07:59:05 46° 89° (E) 08:06:28 435.465 / 435.565
BRITE-PL 29 Jul 08:15:28 08:19:28 37° 98° (E) 08:23:45 437.365/2234.400
BEESAT 3 29 Jul 08:20:05 08:22:35 16° 43° (NE) 08:25:10 437.485
M-CUBED/EXP-1 PRIME 29 Jul 08:22:06 08:24:54 19° 61° (ENE) 08:27:59 437.505
CUTE-I 29 Jul 08:41:44 08:45:36 20° 296° (WNW) 08:49:16 437.470
STRAND 1 29 Jul 08:41:53 08:44:21 13° 272° (W) 08:46:30 437.568
GOMX 1 29 Jul 08:43:29 08:47:45 45° 99° (E) 08:52:18 467.674
DOVE 4 29 Jul 08:48:40 08:52:43 31° 96° (E) 08:57:01 437.250
AUBIESAT-1 29 Jul 08:53:51 08:57:27 35° 65° (ENE) 09:01:23 437.475
COMPASS 1 29 Jul 08:59:50 09:02:52 19° 92° (E) 09:06:01 437.405
CUTE 1.7 + AOD 2 29 Jul 09:05:57 09:09:57 36° 97° (E) 09:13:56 437.475
SEEDS 29 Jul 09:08:42 09:12:30 31° 96° (E) 09:16:19 437.485
BEESAT 2 29 Jul 09:12:13 09:16:01 36° 52° (NE) 09:19:46 435.950
CANX-2 29 Jul 09:13:39 09:17:52 51° 99° (E) 09:22:03 2200.000
CINEMA 3 29 Jul 09:22:42 09:26:52 33° 96° (E) 09:31:14 145.822/145.860
PCSat 29 Jul 09:24:32 09:29:15 33° 110° (ESE) 09:34:06 145.827
HO-68 29 Jul 09:28:36 09:35:45 65° 102° (ESE) 09:42:53 435.675
RS-15 29 Jul 09:35:43 09:45:16 28° 255° (WSW) 09:54:28 29.354- 29.394
AAUSAT CUBESAT 2 29 Jul 09:43:27 09:47:35 52° 99° (E) 09:51:40 437.432
UNISAT 6 29 Jul 09:45:19 09:48:31 21° 67° (ENE) 09:51:52 437.425
Cosmos 2499 29 Jul 09:45:58 09:52:31 32° 291° (WNW) 09:59:20 435.465 / 435.565
ZACube-1 29 Jul 09:51:54 09:55:00 19° 92° (E) 09:58:17 437.345
DELFI C3 29 Jul 09:53:48 09:56:41 19° 93° (E) 09:59:38 145.870
BRITE-PL 29 Jul 09:54:45 09:57:51 19° 291° (WNW) 10:00:58 437.365/2234.400
M-CUBED/EXP-1 PRIME 29 Jul 09:55:49 09:59:25 36° 259° (W) 10:03:19 437.505
BEESAT 3 29 Jul 09:56:55 10:00:54 55° 241° (WSW) 10:04:46 437.485
SO-50 29 Jul 10:02:25 10:06:55 46° 116° (ESE) 10:11:37 436.795
UWE-3 29 Jul 10:07:25 10:11:38 36° 97° (E) 10:15:55 435.000/436.395/437.385
FUNcube-1 29 Jul 10:14:27 10:18:28 31° 96° (E) 10:22:33 145.935
CUBEBUG 2 29 Jul 10:15:43 10:20:15 56° 100° (E) 10:24:53 437.445
POLYITAN 1 29 Jul 10:19:25 10:22:19 19° 68° (ENE) 10:25:20 437.675
AIST 2 29 Jul 10:22:37 10:26:41 46° 54° (NE) 10:30:40 435.215
GOMX 1 29 Jul 10:22:41 10:25:40 17° 292° (WNW) 10:28:36 467.674
DOVE 4 29 Jul 10:26:40 10:30:23 25° 290° (WNW) 10:34:12 437.250
TIGRISAT 29 Jul 10:28:52 10:33:05 59° 74° (ENE) 10:37:25 435.000
ANTELSAT 29 Jul 10:29:09 10:33:24 63° 75° (ENE) 10:37:48 437.575/2403.000
AUBIESAT-1 29 Jul 10:29:32 10:32:22 18° 264° (W) 10:35:14 437.475
Oscar 11 29 Jul 10:32:58 10:37:21 84° 102° (ESE) 10:41:43 145.826/435.025
COMPASS 1 29 Jul 10:34:49 10:38:39 33° 288° (WNW) 10:42:25 437.405
UKube-1 29 Jul 10:35:50 10:37:38 13° 90° (E) 10:39:41 .
POPSAT HIP 1 29 Jul 10:37:07 10:40:40 28° 70° (ENE) 10:44:19 437.405
CUTE 1.7 + AOD 2 29 Jul 10:42:31 10:45:37 19° 292° (WNW) 10:48:35 437.475
QB50P2 29 Jul 10:43:38 10:47:26 34° 71° (ENE) 10:51:18 145.880/145.840
SEEDS 29 Jul 10:44:49 10:48:08 22° 291° (WNW) 10:51:20 437.485
BEESAT 2 29 Jul 10:50:52 10:53:50 19° 248° (WSW) 10:56:39 435.950
CANX-2 29 Jul 10:50:58 10:53:23 14° 294° (WNW) 10:55:39 2200.000
DX 1 29 Jul 10:57:23 11:00:56 25° 95° (E) 11:04:34 434.975-435.025
BUGSAT 1 29 Jul 10:58:44 11:02:15 30° 71° (ENE) 11:05:49 437.445
VELOX 1 29 Jul 11:00:05 11:02:38 16° 91° (E) 11:05:22 145.980
CINEMA 3 29 Jul 11:00:09 11:03:57 25° 290° (WNW) 11:07:47 145.822/145.860
ESTCUBE 1 29 Jul 11:00:17 11:01:01 10° 88° (E) 11:02:04 437.505/2401.250
HUMSAT D 29 Jul 11:05:04 11:09:14 46° 99° (E) 11:13:25 437.325/437.525
PCSat 29 Jul 11:07:41 11:12:39 35° 308° (NW) 11:17:35 145.827
DUCHIFAT 1 29 Jul 11:11:36 11:15:44 69° 76° (ENE) 11:19:55 145.980
QB50P1 29 Jul 11:12:17 11:16:28 73° 75° (ENE) 11:20:40 145.935-145.965
YUBILEINY 29 Jul 11:14:29 11:22:23 36° 70° (ENE) 11:30:24 435.215
NANOSAT C BR1 29 Jul 11:14:52 11:19:03 77° 76° (ENE) 11:23:15 145.865
HO-68 29 Jul 11:17:19 11:22:59 25° 300° (WNW) 11:28:27 435.675
AAUSAT CUBESAT 2 29 Jul 11:20:36 11:22:46 13° 294° (WNW) 11:24:45 437.432
UNISAT 6 29 Jul 11:21:10 11:25:06 34° 264° (W) 11:29:06 437.425
ZACube-1 29 Jul 11:27:18 11:31:33 41° 287° (WNW) 11:35:49 437.345
DELFI C3 29 Jul 11:28:12 11:31:50 31° 289° (WNW) 11:35:24 145.870
50 SAT 29 Jul 11:42:36 11:46:32 58° 100° (E) 11:50:27 437.505
SO-50 29 Jul 11:43:46 11:47:43 24° 315° (NW) 11:51:41 436.795
UWE-3 29 Jul 11:44:23 11:47:57 22° 291° (WNW) 11:51:29 435.000/436.395/437.385
Cosmos 2491 29 Jul 11:47:13 11:54:11 29° 84° (E) 12:01:24 435.465 / 435.565
FUNcube-1 29 Jul 11:50:57 11:54:39 25° 291° (WNW) 11:58:17 145.935
CUBEBUG 2 29 Jul 11:53:49 11:56:33 15° 294° (WNW) 11:59:07 437.445
POLYITAN 1 29 Jul 11:54:08 11:58:00 35° 263° (W) 12:01:52 437.675
AISAT 29 Jul 11:55:01 11:59:25 67° 101° (ESE) 12:03:48 437.250
AIST 1 29 Jul 12:01:52 12:05:27 26° 90° (E) 12:09:06
AIST 2 29 Jul 12:02:17 12:04:55 16° 249° (WSW) 12:07:21 435.215
O/OREOS (USA 219) 29 Jul 12:02:27 12:06:56 53° 65° (ENE) 12:11:27 437.305
TIGRISAT 29 Jul 12:08:51 12:10:22 11° 272° (W) 12:11:36 435.000
ANTELSAT 29 Jul 12:09:31 12:10:45 11° 273° (W) 12:11:42 437.575/2403.000
UKube-1 29 Jul 12:09:56 12:14:10 53° 287° (WNW) 12:18:22 .
POPSAT HIP 1 29 Jul 12:13:12 12:16:34 23° 266° (W) 12:19:51 437.405
CUBEBUG 1 29 Jul 12:19:24 12:23:43 69° 101° (ESE) 12:28:01 437.445
QB50P2 29 Jul 12:20:27 12:23:28 18° 268° (W) 12:26:22 145.880/145.840
DX 1 29 Jul 12:33:27 12:37:10 28° 291° (WNW) 12:40:49 434.975-435.025
ESTCUBE 1 29 Jul 12:33:58 12:38:28 68° 285° (WNW) 12:42:55 437.505/2401.250
BUGSAT 1 29 Jul 12:34:43 12:37:47 20° 267° (W) 12:40:45 437.445
VELOX 1 29 Jul 12:35:16 12:39:29 45° 288° (WNW) 12:43:40 145.980
HUMSAT D 29 Jul 12:41:56 12:44:37 16° 293° (WNW) 12:47:08 437.325/437.525
Oscar 19 29 Jul 12:44:23 12:48:42 29° 68° (ENE) 12:53:09 437.125/150
SPROUT 29 Jul 13:07:42 13:12:00 71° 101° (ESE) 13:16:17 437.525
YUBILEINY 29 Jul 13:11:06 13:19:29 49° 270° (W) 13:27:47 435.215
Gurwin Techsat 1B 29 Jul 13:19:00 13:22:39 20° 65° (ENE) 13:26:30 435.225
50 SAT 29 Jul 13:19:22 13:20:40 11° 295° (WNW) 13:21:46 437.505
AO-7 29 Jul 13:31:30 13:33:42 12° 45° (NE) 13:36:25 29.400- 29.500
TISAT 1 29 Jul 13:32:08 13:36:22 81° 104° (ESE) 13:40:34 437.305
AISAT 29 Jul 13:33:45 13:35:30 12° 296° (WNW) 13:37:01 437.250
AIST 1 29 Jul 13:39:27 13:43:05 24° 286° (WNW) 13:46:38
Cosmos 2491 29 Jul 13:41:55 13:50:34 60° 283° (WNW) 13:59:11 435.465 / 435.565
O/OREOS (USA 219) 29 Jul 13:43:26 13:45:58 14° 260° (W) 13:48:17 437.305
Cosmos 2504 29 Jul 13:51:57 13:59:50 45° 75° (ENE) 14:08:01 435.465 / 435.565
ITAMSAT 1 29 Jul 13:57:57 14:02:45 40° 70° (ENE) 14:07:37 435.822/435.867
CUBEBUG 1 29 Jul 13:58:13 13:59:33 11° 296° (WNW) 14:00:39 437.445
BEESAT 29 Jul 14:17:32 14:21:59 38° 97° (E) 14:26:26 436.000
Oscar 19 29 Jul 14:23:26 14:28:01 32° 264° (W) 14:32:33 437.125/150
JAS-2 29 Jul 14:27:19 14:32:29 32° 64° (ENE) 14:38:20 435.910
SWISSCUBE 29 Jul 14:37:25 14:42:11 68° 102° (ESE) 14:46:54 437.505
SPROUT 29 Jul 14:46:26 14:47:34 11° 296° (WNW) 14:48:28 437.525
ITUPSAT 1 29 Jul 14:56:50 15:01:40 85° 281° (W) 15:06:25 437.325
Gurwin Techsat 1B 29 Jul 14:57:05 15:02:16 54° 260° (W) 15:07:29 435.225
DANDE 29 Jul 15:03:40 15:05:05 12° 74° (ENE) 15:06:51 436.750
AO-7 29 Jul 15:16:49 15:24:47 53° 65° (ENE) 15:32:50 29.400- 29.500
ITAMSAT 1 29 Jul 15:38:08 15:42:25 24° 266° (W) 15:46:35 435.822/435.867
STARS 29 Jul 15:39:50 15:43:36 27° 96° (E) 15:47:25 437.465
CUSAT 1 29 Jul 15:43:30 15:47:22 65° 80° (E) 15:52:33 437.405
Cosmos 2504 29 Jul 15:44:20 15:51:59 40° 272° (W) 15:59:41 435.465 / 435.565
Cosmos 2491 29 Jul 15:47:44 15:49:52 11° 307° (NW) 15:51:16 435.465 / 435.565
BEESAT 29 Jul 15:55:53 15:59:37 22° 293° (WNW) 16:03:13 436.000
GONETS M04 29 Jul 15:57:15 16:01:31 15° 58° (ENE) 16:06:22
KKS-1 29 Jul 15:58:35 16:03:04 76° 103° (ESE) 16:07:31 437.445
HORYU 2 29 Jul 16:01:42 16:06:09 89° 222° (SW) 16:10:39 437.375
JAS-2 29 Jul 16:11:54 16:17:25 41° 265° (W) 16:23:36 435.910
SWISSCUBE 29 Jul 16:17:07 16:19:31 14° 297° (WNW) 16:21:42 437.505
MOZHAYETS 4 29 Jul 16:28:23 16:31:36 19° 91° (E) 16:34:57
DANDE 29 Jul 16:44:45 16:48:08 39° 262° (W) 16:52:29 436.750
CUTE-I 29 Jul 16:46:33 16:47:49 11° 60° (ENE) 16:49:25 437.470
AO-7 29 Jul 17:10:21 17:17:52 35° 264° (W) 17:25:16 29.400- 29.500
STARS 29 Jul 17:16:16 17:19:59 26° 291° (WNW) 17:23:38 437.465
Cubesat XI-IV 29 Jul 17:26:11 17:30:31 26° 66° (ENE) 17:34:57 437.490
KKS-1 29 Jul 17:37:56 17:39:09 11° 297° (WNW) 17:40:06 437.445
Cosmos 2499 29 Jul 17:44:10 17:49:29 18° 61° (ENE) 17:55:22 435.465 / 435.565
GONETS M04 29 Jul 17:51:29 18:00:13 77° 81° (E) 18:08:58
MOZHAYETS 4 29 Jul 18:04:41 18:09:03 40° 288° (WNW) 18:13:20
PCSat 29 Jul 18:12:48 18:17:15 26° 48° (NE) 18:21:45 145.827
CUBESAT XI-V 29 Jul 18:14:05 18:17:28 21° 92° (E) 18:20:58 437.345
CUTE-I 29 Jul 18:21:47 18:27:09 82° 76° (ENE) 18:32:33 437.470
SO-50 29 Jul 18:34:30 18:39:07 37° 50° (NE) 18:43:40 436.795
PRISM 29 Jul 19:00:02 19:01:42 12° 90° (E) 19:03:36 437.425
Cubesat XI-IV 29 Jul 19:05:23 19:10:26 40° 262° (W) 19:15:28 437.490
STRAND 1 29 Jul 19:11:15 19:15:23 25° 94° (E) 19:19:34 437.568
VERMONT LUNAR 29 Jul 19:19:06 19:21:43 24° 153° (SSE) 19:24:23 437.305
BRITE-PL 29 Jul 19:26:08 19:30:19 40° 73° (ENE) 19:34:19 437.365/2234.400
Cosmos 2499 29 Jul 19:35:20 19:44:06 85° 83° (E) 19:53:01 435.465 / 435.565
GONETS M04 29 Jul 19:50:01 19:56:14 21° 278° (W) 20:02:04
CUBESAT XI-V 29 Jul 19:50:49 19:55:05 37° 288° (WNW) 19:59:15 437.345
COMPASS 1 29 Jul 19:51:35 19:53:32 13° 66° (ENE) 19:55:42 437.405
GOMX 1 29 Jul 19:51:38 19:55:41 42° 74° (ENE) 19:59:39 467.674
DOVE 4 29 Jul 19:54:33 19:58:02 27° 70° (ENE) 20:01:34 437.250
PCSat 29 Jul 19:55:43 20:00:57 49° 247° (WSW) 20:06:07 145.827
HO-68 29 Jul 19:56:23 20:03:03 46° 67° (ENE) 20:09:49 435.675
CUTE 1.7 + AOD 2 29 Jul 19:58:28 20:01:55 25° 70° (ENE) 20:05:28 437.475
SEEDS 29 Jul 20:00:33 20:03:43 21° 69° (ENE) 20:07:00 437.485
CUTE-I 29 Jul 20:05:58 20:07:59 12° 273° (W) 20:09:39 437.470
CANX-2 29 Jul 20:05:59 20:09:47 33° 72° (ENE) 20:13:41 2200.000
SO-50 29 Jul 20:15:20 20:19:33 28° 247° (WSW) 20:23:35 436.795
CINEMA 3 29 Jul 20:24:43 20:28:05 25° 70° (ENE) 20:31:32 145.822/145.860
PHONESAT 2.4 29 Jul 20:25:09 20:26:54 13° 147° (SSE) 20:28:44 2401.200-2431.200
PRISM 29 Jul 20:33:30 20:37:30 49° 287° (WNW) 20:41:27 437.425
AAUSAT CUBESAT 2 29 Jul 20:33:34 20:37:17 32° 71° (ENE) 20:41:04 437.432
DELFI C3 29 Jul 20:41:56 20:43:18 12° 65° (ENE) 20:44:51 145.870
ZACube-1 29 Jul 20:48:43 20:50:36 13° 65° (ENE) 20:52:42 437.345
STRAND 1 29 Jul 20:50:00 20:54:42 37° 290° (WNW) 20:59:20 437.568
VERMONT LUNAR 29 Jul 20:55:03 20:58:15 79° 167° (SSE) 21:01:25 437.305
UWE-3 29 Jul 21:04:35 21:07:59 25° 69° (ENE) 21:11:29 435.000/436.395/437.385
BRITE-PL 29 Jul 21:06:04 21:09:04 17° 268° (W) 21:11:47 437.365/2234.400
FUNcube-1 29 Jul 21:10:16 21:13:26 22° 68° (ENE) 21:16:44 145.935
CUBEBUG 2 29 Jul 21:13:42 21:17:34 40° 72° (ENE) 21:21:34 437.445
COMPASS 1 29 Jul 21:24:41 21:28:48 53° 261° (W) 21:32:57 437.405
Oscar 11 29 Jul 21:26:50 21:31:05 58° 75° (ENE) 21:35:22 145.826/435.025
Cosmos 2499 29 Jul 21:30:23 21:36:24 20° 279° (W) 21:42:00 435.465 / 435.565
UKube-1 29 Jul 21:31:15 21:32:24 11° 63° (ENE) 21:33:48 .
GOMX 1 29 Jul 21:31:37 21:34:06 15° 269° (W) 21:36:23 467.674
DOVE 4 29 Jul 21:32:28 21:35:50 22° 266° (W) 21:39:05 437.250
CUTE 1.7 + AOD 2 29 Jul 21:34:05 21:37:46 27° 266° (W) 21:41:23 437.475
SEEDS 29 Jul 21:35:31 21:39:20 31° 264° (W) 21:43:09 437.485
M-CUBED/EXP-1 PRIME 29 Jul 21:37:31 21:40:54 19° 96° (E) 21:44:22 437.505
CANX-2 29 Jul 21:42:37 21:45:49 20° 268° (W) 21:48:56 2200.000
HO-68 29 Jul 21:44:34 21:50:58 34° 264° (W) 21:57:15 435.675
RS-15 29 Jul 21:44:35 21:54:59 56° 113° (ESE) 22:05:50 29.354- 29.394
DX 1 29 Jul 21:52:46 21:56:00 21° 68° (ENE) 21:59:19 434.975-435.025
HUMSAT D 29 Jul 21:56:25 21:59:59 29° 70° (ENE) 22:03:38 437.325/437.525
VELOX 1 29 Jul 21:57:50 22:00:02 14° 65° (ENE) 22:02:27 145.980
Cosmos 2491 29 Jul 21:59:24 22:02:33 13° 55° (NE) 22:06:22 435.465 / 435.565
ESTCUBE 1 29 Jul 22:00:12 22:00:51 10° 63° (ENE) 22:01:46 437.505/2401.250
PHONESAT 2.4 29 Jul 22:01:01 22:04:26 51° 161° (SSE) 22:07:51 2401.200-2431.200
CINEMA 3 29 Jul 22:01:50 22:05:16 24° 266° (W) 22:08:39 145.822/145.860
AUBIESAT-1 29 Jul 22:08:56 22:13:15 35° 101° (E) 22:17:31 437.475
ISS 29 Jul 22:09:45 22:12:58 61° 139° (SE) 22:16:11 145.825
AAUSAT CUBESAT 2 29 Jul 22:09:48 22:12:58 20° 268° (W) 22:16:02 437.432
DELFI C3 29 Jul 22:13:55 22:17:55 57° 260° (W) 22:21:56 145.870
ZACube-1 29 Jul 22:22:27 22:26:32 53° 261° (W) 22:30:41 437.345
TIGRISAT 29 Jul 22:22:28 22:24:51 14° 89° (E) 22:27:30 435.000
ANTELSAT 29 Jul 22:22:53 22:25:29 15° 90° (E) 22:28:18 437.575/2403.000
50 SAT 29 Jul 22:25:58 22:29:17 28° 71° (ENE) 22:32:42 437.505
VERMONT LUNAR 29 Jul 22:31:50 22:35:01 83° 3° (N) 22:38:11 437.305
UWE-3 29 Jul 22:40:58 22:44:28 25° 266° (W) 22:47:58 435.000/436.395/437.385
FUNcube-1 29 Jul 22:45:56 22:49:37 30° 265° (W) 22:53:20 145.935
CUBEBUG 2 29 Jul 22:51:57 22:54:32 15° 270° (W) 22:56:59 437.445
AISAT 29 Jul 22:51:58 22:56:16 55° 74° (ENE) 23:00:36 437.250
DUCHIFAT 1 29 Jul 22:59:03 23:00:22 11° 89° (E) 23:01:54 145.980
QB50P1 29 Jul 22:59:51 23:01:34 12° 89° (E) 23:03:30 145.935-145.965
NANOSAT C BR1 29 Jul 23:02:03 23:03:56 13° 90° (E) 23:06:02 145.865
UKube-1 29 Jul 23:03:43 23:08:01 70° 258° (WSW) 23:12:21 .
Oscar 11 29 Jul 23:06:03 23:07:43 12° 272° (W) 23:09:09 145.826/435.025
M-CUBED/EXP-1 PRIME 29 Jul 23:11:15 23:15:53 47° 293° (WNW) 23:20:25 437.505
UNISAT 6 29 Jul 23:12:55 23:17:29 51° 99° (E) 23:22:04 437.425
